Tracking 17631 objects as of 4-May-2016
HD Live streaming from Space Station
objects crossing your sky now

CZ-4B DEB

Track CZ-4B DEB now!
10-day predictions


NORAD ID: 36290
Int'l Code: 2008-053L
Perigee: 565.4 km
Apogee: 596.5 km
Inclination: 97.6 °
Period: 96.1 minutes
Semi major axis: 6951 km
RCS: 0.0218 m2 (small)
Launch date: October 25, 2008
Source: People's Republic of China (PRC)
Launch site: Taiyaun Space Center, China (TSC)

Note: This is SATELLITE DEBRIS
Your satellite tracking list
Your tracking list is empty





NASA's NSSDC Master Catalog

Two Line Element Set (TLE):
1 36290U 08053L   16120.78324908 +.00000474 +00000-0 +45066-4 0  9997
2 36290 097.5620 115.6848 0022363 124.0557 236.2792 14.97754329174266
Source of the keplerian elements: AFSPC

N2YO: 449